User: anonymous   Login
Location: Theydon Bois
(51.6750°N, 0.1050°E)
Time: 13:06:57
(UTC+01:00)
Language:

YAOGAN 6 - Orbit

View from above orbital plane
View from above orbital plane
View from above satellite
View from above satellite

Ground track
Ground track

The orbit data is extracted from the following two-line orbital elements,

1 34839U 09021A   17295.17280810  .00000842  00000-0  35274-4 0  9999
2 34839  97.1287 339.9932 0027328 227.9440 131.9474 15.25875624471940
Epoch (UTC): 22 October 2017 04:08:50
Eccentricity: 0.0027328
inclination: 97.1287°
perigee height: 469 km
apogee height: 507 km
right ascension of ascending node: 339.9932°
argument of perigee: 227.9440°
revolutions per day: 15.25875624
mean anomaly at epoch: 131.9474°
orbit number at epoch: 47194

The dashed part of the orbit path shows where the satellite is in the earth's shadow,  

DLR